Вернуться в каталог

STARLINK-5654

АктивенСвязьVLEO
NORAD 55366·PAYLOAD·🇺🇸 United States

Запущен Jan 26, 2023 с Cape Canaveral Space Force Station

Loading…

Ближайшие Пролёты (ближайшие 24 часа)

TLE

СвежийSource: CelesTrak SupGP

Эпоха: Sep 15, 2026, 01:43 UTC

1 55366C 23013AM  26258.07201389  .00025406  00000+0  92032-3 0  2580
2 55366  43.0024 298.9366 0001381 290.4720 286.3744 15.27561914    16

Отслеживайте STARLINK-5654 в реальном времени с AllMySat

Download on the App Store